Hourly Weather Slobyrevo

Today, 18 September, Friday

Time Temperature Precipitation Wind Pressure Humidity
00:00 +6°C° 0.5 mm 4 mps 733 mmHg 94%
01:00 +6°C° 0.5 mm 4 mps 733 mmHg 94%
02:00 +6°C° 0 mm 4 mps 733 mmHg 94%
03:00 +6°C° 0.2 mm 4 mps 733 mmHg 94%
04:00 +7°C° 0.2 mm 3 mps 733 mmHg 95%
05:00 +7°C° 0.2 mm 3 mps 733 mmHg 95%
06:00 +6°C° 0.1 mm 4 mps 734 mmHg 93%
07:00 +7°C° 0.1 mm 4 mps 734 mmHg 91%
08:00 +7°C° 0.1 mm 5 mps 734 mmHg 90%
09:00 +7°C° 0.8 mm 5 mps 735 mmHg 91%
10:00 +7°C° 0.8 mm 5 mps 736 mmHg 93%
11:00 +7°C° 0.8 mm 5 mps 736 mmHg 94%
12:00 +7°C° 0.6 mm 6 mps 737 mmHg 94%
13:00 +7°C° 0.6 mm 6 mps 738 mmHg 93%
14:00 +7°C° 0.6 mm 6 mps 738 mmHg 93%
15:00 +7°C° 0.1 mm 6 mps 739 mmHg 92%
16:00 +7°C° 0.1 mm 6 mps 740 mmHg 90%
17:00 +5°C° 0.1 mm 6 mps 740 mmHg 89%
18:00 +5°C° 0 mm 6 mps 741 mmHg 89%
19:00 +5°C° 0 mm 6 mps 741 mmHg 88%
20:00 +6°C° 0 mm 5 mps 742 mmHg 88%
21:00 +5°C° 0 mm 5 mps 742 mmHg 89%
22:00 +5°C° 0 mm 4 mps 742 mmHg 90%
23:00 +4°C° 0 mm 4 mps 742 mmHg 91%

Tomorrow, 19 September, Saturday

Time Temperature Precipitation Wind Pressure Humidity
00:00 +4°C° 0 mm 4 mps 742 mmHg 89%
01:00 +5°C° 0 mm 4 mps 742 mmHg 87%
02:00 +5°C° 0 mm 4 mps 742 mmHg 85%
03:00 +5°C° 0 mm 4 mps 742 mmHg 87%
04:00 +6°C° 0 mm 5 mps 742 mmHg 89%
05:00 +6°C° 0 mm 5 mps 741 mmHg 90%
06:00 +7°C° 0 mm 5 mps 742 mmHg 88%
07:00 +8°C° 0 mm 5 mps 742 mmHg 85%
08:00 +9°C° 0 mm 5 mps 742 mmHg 83%
09:00 +10°C° 0 mm 5 mps 742 mmHg 77%
10:00 +12°C° 0 mm 5 mps 742 mmHg 71%
11:00 +13°C° 0 mm 5 mps 742 mmHg 65%
12:00 +13°C° 0 mm 5 mps 742 mmHg 64%
13:00 +13°C° 0 mm 5 mps 742 mmHg 62%
14:00 +14°C° 0 mm 5 mps 742 mmHg 61%
15:00 +13°C° 0.1 mm 4 mps 742 mmHg 67%
16:00 +12°C° 0.1 mm 4 mps 742 mmHg 74%
17:00 +11°C° 0.1 mm 3 mps 742 mmHg 80%
18:00 +10°C° 0 mm 3 mps 742 mmHg 82%
19:00 +9°C° 0 mm 3 mps 743 mmHg 84%
20:00 +8°C° 0 mm 3 mps 743 mmHg 86%
21:00 +8°C° 0 mm 3 mps 743 mmHg 85%
22:00 +8°C° 0 mm 3 mps 744 mmHg 84%
23:00 +8°C° 0 mm 3 mps 744 mmHg 82%

Day after tomorrow, 20 September, Sunday

Time Temperature Precipitation Wind Pressure Humidity
00:00 +7°C° 0 mm 3 mps 744 mmHg 84%
01:00 +7°C° 0 mm 3 mps 745 mmHg 85%
02:00 +7°C° 0 mm 3 mps 745 mmHg 86%
03:00 +5°C° 0 mm 3 mps 745 mmHg 89%
04:00 +5°C° 0 mm 3 mps 745 mmHg 92%
05:00 +4°C° 0 mm 3 mps 746 mmHg 95%
06:00 +5°C° 0 mm 3 mps 746 mmHg 91%
07:00 +7°C° 0 mm 3 mps 746 mmHg 86%
08:00 +6°C° 0 mm 4 mps 747 mmHg 82%
09:00 +8°C° 0 mm 4 mps 747 mmHg 76%
10:00 +10°C° 0 mm 4 mps 747 mmHg 69%
11:00 +11°C° 0 mm 4 mps 747 mmHg 62%
12:00 +12°C° 0 mm 4 mps 747 mmHg 61%
13:00 +12°C° 0 mm 4 mps 747 mmHg 59%
14:00 +13°C° 0 mm 4 mps 747 mmHg 58%
15:00 +12°C° 0 mm 3 mps 747 mmHg 63%
16:00 +11°C° 0 mm 3 mps 746 mmHg 68%
17:00 +10°C° 0 mm 2 mps 746 mmHg 73%
18:00 +9°C° 0 mm 2 mps 746 mmHg 78%
19:00 +8°C° 0 mm 2 mps 746 mmHg 83%
20:00 +7°C° 0 mm 2 mps 747 mmHg 88%
21:00 +7°C° 0 mm 2 mps 747 mmHg 87%
22:00 +7°C° 0 mm 3 mps 747 mmHg 87%
23:00 +7°C° 0 mm 3 mps 747 mmHg 86%

21 September, Monday

Time Temperature Precipitation Wind Pressure Humidity
00:00 +7°C° 0 mm 3 mps 746 mmHg 88%
01:00 +7°C° 0 mm 3 mps 746 mmHg 89%
02:00 +5°C° 0 mm 3 mps 746 mmHg 91%
03:00 +6°C° 0 mm 4 mps 746 mmHg 89%
04:00 +6°C° 0 mm 4 mps 746 mmHg 88%
05:00 +6°C° 0 mm 4 mps 746 mmHg 86%
06:00 +7°C° 0 mm 4 mps 745 mmHg 83%
07:00 +8°C° 0 mm 5 mps 745 mmHg 79%
08:00 +9°C° 0 mm 5 mps 745 mmHg 76%
09:00 +10°C° 0 mm 5 mps 745 mmHg 73%
10:00 +12°C° 0 mm 5 mps 745 mmHg 71%
11:00 +13°C° 0 mm 5 mps 745 mmHg 68%
12:00 +14°C° 0 mm 5 mps 745 mmHg 70%
13:00 +14°C° 0 mm 5 mps 745 mmHg 71%
14:00 +14°C° 0 mm 4 mps 745 mmHg 72%
15:00 +14°C° 0 mm 4 mps 745 mmHg 75%
16:00 +13°C° 0 mm 3 mps 745 mmHg 78%
17:00 +13°C° 0 mm 3 mps 745 mmHg 81%
18:00 +13°C° 0 mm 2 mps 745 mmHg 86%
19:00 +12°C° 0 mm 2 mps 745 mmHg 90%
20:00 +10°C° 0 mm 2 mps 745 mmHg 94%
21:00 +9°C° 0 mm 2 mps 745 mmHg 95%
22:00 +9°C° 0 mm 2 mps 745 mmHg 96%
23:00 +9°C° 0 mm 2 mps 745 mmHg 96%

22 September, Tuesday

Time Temperature Precipitation Wind Pressure Humidity
00:00 +9°C° 0 mm 2 mps 745 mmHg 96%
01:00 +9°C° 0 mm 2 mps 745 mmHg 97%
02:00 +8°C° 0 mm 2 mps 745 mmHg 97%
03:00 +8°C° 0 mm 2 mps 745 mmHg 97%
04:00 +8°C° 0 mm 2 mps 745 mmHg 97%
05:00 +8°C° 0 mm 2 mps 745 mmHg 97%
06:00 +9°C° 0 mm 2 mps 745 mmHg 95%
07:00 +10°C° 0 mm 3 mps 746 mmHg 92%
08:00 +11°C° 0 mm 3 mps 746 mmHg 89%
09:00 +13°C° 0 mm 4 mps 746 mmHg 81%
10:00 +15°C° 0 mm 4 mps 746 mmHg 74%
11:00 +17°C° 0 mm 4 mps 746 mmHg 67%
12:00 +17°C° 0 mm 5 mps 745 mmHg 65%
13:00 +17°C° 0 mm 5 mps 745 mmHg 63%
14:00 +19°C° 0 mm 5 mps 745 mmHg 62%
15:00 +18°C° 0 mm 4 mps 744 mmHg 67%
16:00 +17°C° 0 mm 4 mps 744 mmHg 73%
17:00 +16°C° 0 mm 3 mps 744 mmHg 78%
18:00 +14°C° 0 mm 3 mps 744 mmHg 81%
19:00 +13°C° 0 mm 3 mps 744 mmHg 84%
20:00 +12°C° 0 mm 4 mps 744 mmHg 87%
21:00 +12°C° 0 mm 4 mps 744 mmHg 88%
22:00 +12°C° 0 mm 4 mps 743 mmHg 88%
23:00 +12°C° 0 mm 4 mps 743 mmHg 89%

23 September, Wednesday

Time Temperature Precipitation Wind Pressure Humidity
00:00 +11°C° 0 mm 4 mps 743 mmHg 89%
01:00 +11°C° 0 mm 4 mps 743 mmHg 90%
02:00 +11°C° 0 mm 4 mps 743 mmHg 91%
03:00 +11°C° 0 mm 4 mps 742 mmHg 91%
04:00 +11°C° 0 mm 4 mps 742 mmHg 90%
05:00 +10°C° 0 mm 4 mps 742 mmHg 90%
06:00 +12°C° 0 mm 4 mps 742 mmHg 85%
07:00 +13°C° 0 mm 4 mps 742 mmHg 80%
08:00 +14°C° 0 mm 5 mps 742 mmHg 75%
09:00 +15°C° 0 mm 5 mps 742 mmHg 70%
10:00 +17°C° 0 mm 5 mps 742 mmHg 65%
11:00 +20°C° 0 mm 6 mps 742 mmHg 59%
12:00 +20°C° 0 mm 6 mps 742 mmHg 57%
13:00 +21°C° 0 mm 5 mps 741 mmHg 56%
14:00 +21°C° 0 mm 5 mps 741 mmHg 54%
15:00 +20°C° 0 mm 5 mps 741 mmHg 58%
16:00 +19°C° 0 mm 5 mps 741 mmHg 62%
17:00 +18°C° 0 mm 4 mps 741 mmHg 67%
18:00 +17°C° 0 mm 4 mps 741 mmHg 69%
19:00 +15°C° 0 mm 4 mps 742 mmHg 71%
20:00 +14°C° 0 mm 4 mps 742 mmHg 73%
21:00 +14°C° 0 mm 4 mps 742 mmHg 73%
22:00 +13°C° 0 mm 4 mps 742 mmHg 73%
23:00 +13°C° 0 mm 3 mps 742 mmHg 74%
Show more